De Queen, AR

10:05 PM CST on December 10, 2019 (GMT -0600)
Helms Sevier County

Weather History for KDEQ - August, 2019

Change the Weather History Date:

Sunday, August 25, 2019

  Actual Average Record
Temperature  
Mean Temperature 82 °F 81 °F  
Max Temperature 89 °F 94 °F 104 °F (1938)
Min Temperature 75 °F 68 °F 53 °F (1966)
Degree Days  
Heating Degree Days 0 0  
Month to date heating degree days 0 0  
Since 1 June heating degree days 0 0  
Since 1 July heating degree days 0 0  
Cooling Degree Days 17 16  
Month to date cooling degree days 484 413  
Year to date cooling degree days 1621 1505  
Since 1 June cooling degree days 1348 1288  
Growing Degree Days 32 (Base 50)    
Moisture  
Dew Point 76 °F    
Average Humidity 86    
Maximum Humidity 100    
Minimum Humidity 69    
Precipitation  
Precipitation T in 0.08 in 1.38 in (1964)
Month to date precipitation 0.35 1.75  
Year to date precipitation 37.43 31.17  
Snow  
Snow 0.00 in - - ()
Month to date snowfall 0.0  
Since 1 June snowfall 0.0  
Since 1 July snowfall 0.0  
Snow Depth 0.00 in    
Sea Level Pressure  
Sea Level Pressure 29.86 in    
Wind  
Wind Speed 4 mph ()    
Max Wind Speed 13 mph    
Max Gust Speed 17 mph    
Visibility 9.8 miles    
Events Rain , Thunderstorm    
T = Trace of Precipitation, MM = Missing Value Source: Averaged Metar Reports

Daily Weather History Graph

Daily Weather History Graph

Search for Another Location

Airport or City:

Astronomy

Aug. 25, 2019 Rise Set
Actual Time 6:46 AM CDT 7:52 PM CDT
Civil Twilight 6:20 AM CDT 8:18 PM CDT
Nautical Twilight 5:49 AM CDT 8:49 PM CDT
Astronomical Twilight 5:17 AM CDT 9:21 PM CDT
Moon 1:29 AM CDT (8/25) 4:05 PM CDT (8/25)
Length of Visible Light 13h 58m
Length of Day
13h 06m
Waning Crescent, 29% of the Moon is Illuminated
Aug 25
Waning Crescent
Aug 30
New
Sep 5
First Quarter
Sep 13
Full
Sep 21
Last Quarter

Hourly Weather History & Observations

Time (CDT) Temp. Heat Index Dew Point Humidity Pressure Visibility Wind Dir Wind Speed Gust Speed Precip Events Conditions
12:53 AM 78.1 °F - 75.9 °F 93% 29.91 in 10.0 mi ENE 4.6 mph - N/A   Scattered Clouds
1:39 AM 78.1 °F - 75.9 °F 93% 29.93 in 10.0 mi East 5.8 mph - N/A   Mostly Cloudy
1:48 AM 78.8 °F - 75.2 °F 89% 29.92 in 10.0 mi ESE 5.8 mph - N/A   Mostly Cloudy
1:53 AM 79.0 °F - 75.0 °F 88% 29.91 in 10.0 mi East 6.9 mph - N/A   Mostly Cloudy
2:53 AM 78.1 °F - 75.0 °F 90% 29.89 in 10.0 mi East 4.6 mph - N/A   Scattered Clouds
3:53 AM 77.0 °F - 75.9 °F 96% 29.88 in 10.0 mi East 5.8 mph - N/A   Partly Cloudy
4:28 AM 75.9 °F - 75.9 °F 100% 29.89 in 10.0 mi ENE 4.6 mph - N/A   Scattered Clouds
4:36 AM 75.9 °F - 75.9 °F 100% 29.89 in 10.0 mi ENE 4.6 mph - N/A   Mostly Cloudy
4:53 AM 75.9 °F - 75.0 °F 97% 29.87 in 10.0 mi East 3.5 mph - N/A   Mostly Cloudy
5:08 AM 75.9 °F - 75.9 °F 100% 29.88 in 10.0 mi ESE 8.1 mph - N/A   Scattered Clouds
5:42 AM 75.9 °F - 75.9 °F 100% 29.88 in 10.0 mi East 3.5 mph - N/A   Mostly Cloudy
5:53 AM 75.9 °F - 75.9 °F 100% 29.86 in 10.0 mi Calm Calm - N/A   Overcast
6:53 AM 77.0 °F - 75.9 °F 96% 29.88 in 10.0 mi Calm Calm - N/A   Overcast
7:03 AM 77.0 °F - 75.9 °F 96% 29.90 in 10.0 mi Calm Calm - N/A   Overcast
7:53 AM 77.0 °F - 75.9 °F 96% 29.87 in 10.0 mi ESE 3.5 mph - N/A   Overcast
8:34 AM 78.1 °F - 75.0 °F 90% 29.89 in 9.0 mi SE 3.5 mph - N/A   Overcast
8:53 AM 77.0 °F - 75.9 °F 96% 29.88 in 5.0 mi SSE 4.6 mph - N/A   Overcast
9:24 AM 78.1 °F - 75.9 °F 93% 29.91 in 10.0 mi Calm Calm - N/A   Overcast
9:48 AM 78.8 °F - 75.2 °F 89% 29.92 in 10.0 mi ENE 4.6 mph - N/A   Overcast
9:53 AM 79.0 °F - 75.9 °F 90% 29.90 in 10.0 mi East 4.6 mph - N/A   Overcast
10:15 AM 80.1 °F 85.8 °F 77.0 °F 90% 29.91 in 10.0 mi East 4.6 mph - N/A   Overcast
10:53 AM 82.0 °F 89.4 °F 75.9 °F 82% 29.89 in 10.0 mi East 6.9 mph - N/A   Overcast
11:46 AM 82.9 °F 90.8 °F 75.9 °F 79% 29.91 in 10.0 mi Calm Calm - N/A   Overcast
11:53 AM 82.9 °F 90.2 °F 75.0 °F 77% 29.89 in 10.0 mi Calm Calm - N/A   Overcast
12:02 PM 82.0 °F 88.6 °F 75.0 °F 79% 29.91 in 10.0 mi SSE 3.5 mph - N/A   Overcast
12:30 PM 82.9 °F 90.8 °F 75.9 °F 79% 29.90 in 10.0 mi ESE 5.8 mph - N/A   Overcast
12:53 PM 84.0 °F 92.6 °F 75.9 °F 76% 29.88 in 10.0 mi East 6.9 mph - N/A   Overcast
1:01 PM 86.0 °F 96.9 °F 77.0 °F 74% 29.89 in 10.0 mi Variable 4.6 mph - N/A   Overcast
1:12 PM 86.0 °F 96.0 °F 75.9 °F 72% 29.89 in 10.0 mi East 3.5 mph - N/A   Mostly Cloudy
1:53 PM 84.9 °F 94.1 °F 75.9 °F 74% 29.85 in 10.0 mi ESE 3.5 mph - N/A   Mostly Cloudy
2:01 PM 84.9 °F 94.1 °F 75.9 °F 74% 29.86 in 10.0 mi South 3.5 mph - N/A Thunderstorm Thunderstorm
2:22 PM 86.0 °F 96.0 °F 75.9 °F 72% 29.85 in 10.0 mi SE 3.5 mph - N/A Thunderstorm Partly Cloudy
2:33 PM 86.0 °F 96.0 °F 75.9 °F 72% 29.85 in 10.0 mi SSW 5.8 mph - N/A   Mostly Cloudy
2:53 PM 88.0 °F 100.2 °F 77.0 °F 70% 29.81 in 10.0 mi Variable 5.8 mph - 0.00 in Rain Light Rain
3:16 PM 87.1 °F 99.8 °F 78.1 °F 74% 29.81 in 10.0 mi ENE 5.8 mph - 0.00 in Thunderstorm Mostly Cloudy
3:29 PM 88.0 °F 101.3 °F 78.1 °F 72% 29.80 in 10.0 mi ENE 8.1 mph - 0.00 in Thunderstorm Thunderstorm
3:44 PM 84.9 °F 93.3 °F 75.0 °F 72% 29.78 in 10.0 mi NE 6.9 mph - 0.00 in   Partly Cloudy
3:53 PM 87.1 °F 97.3 °F 75.9 °F 69% 29.76 in 10.0 mi East 9.2 mph - 0.00 in   Clear
4:53 PM 81.0 °F 86.2 °F 73.9 °F 79% 29.77 in 10.0 mi ENE 5.8 mph - N/A   Clear
5:53 PM 82.0 °F 87.4 °F 73.0 °F 74% 29.76 in 10.0 mi East 6.9 mph - N/A   Clear
6:53 PM 82.0 °F 88.6 °F 75.0 °F 79% 29.75 in 10.0 mi East 4.6 mph - N/A   Clear
8:53 PM 77.0 °F - 75.0 °F 94% 29.78 in 10.0 mi ENE 3.5 mph - N/A   Clear
9:53 PM 75.9 °F - 75.0 °F 97% 29.80 in 10.0 mi Calm Calm - N/A   Partly Cloudy
10:53 PM 75.9 °F - 75.9 °F 100% 29.81 in 9.0 mi NE 3.5 mph - N/A   Clear
11:53 PM 75.9 °F - 75.9 °F 100% 29.81 in 8.0 mi ENE 4.6 mph - N/A   Clear